TimeCST,TemperatureF,Dew PointF,Humidity,Sea Level PressureIn,VisibilityMPH,Wind Direction,Wind SpeedMPH,Gust SpeedMPH,PrecipitationIn,Events,Conditions,WindDirDegrees,DateUTC
12:53 AM,59.0,53.1,81,29.96,10.0,South,10.4,-,N/A,,Overcast,180,2012-12-07 06:53:00
1:53 AM,59.0,53.1,81,29.97,10.0,South,9.2,-,N/A,,Overcast,190,2012-12-07 07:53:00
2:53 AM,59.0,54.0,83,29.97,10.0,South,8.1,-,N/A,,Overcast,170,2012-12-07 08:53:00
3:53 AM,57.9,54.0,87,29.97,10.0,South,6.9,-,N/A,,Overcast,180,2012-12-07 09:53:00
4:53 AM,57.9,54.0,87,29.97,10.0,South,6.9,-,N/A,,Overcast,180,2012-12-07 10:53:00
5:53 AM,57.9,54.0,87,29.98,10.0,South,10.4,-,N/A,,Overcast,190,2012-12-07 11:53:00
6:53 AM,57.9,54.0,87,29.99,10.0,South,9.2,-,N/A,,Overcast,190,2012-12-07 12:53:00
7:24 AM,57.2,55.4,94,30.00,10.0,SSW,8.1,-,N/A,,Mostly Cloudy,200,2012-12-07 13:24:00
7:53 AM,59.0,55.0,87,30.00,10.0,South,8.1,-,N/A,,Overcast,190,2012-12-07 13:53:00
8:08 AM,59.0,55.4,88,30.00,10.0,South,11.5,-,N/A,,Overcast,190,2012-12-07 14:08:00
8:53 AM,60.1,55.9,86,29.99,10.0,South,12.7,19.6,N/A,,Overcast,190,2012-12-07 14:53:00
9:53 AM,60.1,55.9,86,29.99,10.0,South,13.8,19.6,N/A,,Overcast,190,2012-12-07 15:53:00
10:53 AM,61.0,57.0,87,29.98,9.0,SSW,11.5,-,N/A,,Overcast,200,2012-12-07 16:53:00
11:53 AM,62.1,57.0,84,29.95,8.0,SSW,11.5,-,N/A,,Overcast,210,2012-12-07 17:53:00
12:23 PM,62.6,57.2,82,29.94,4.0,SSW,11.5,-,N/A,,Overcast,200,2012-12-07 18:23:00
12:53 PM,63.0,57.9,84,29.93,4.0,South,8.1,-,N/A,,Overcast,190,2012-12-07 18:53:00
1:38 PM,64.4,57.2,77,29.90,10.0,SSW,12.7,-,N/A,,Overcast,200,2012-12-07 19:38:00
1:53 PM,64.9,57.9,78,29.89,10.0,SSW,10.4,-,N/A,,Mostly Cloudy,200,2012-12-07 19:53:00
2:01 PM,64.4,57.2,77,29.90,10.0,SSW,12.7,-,N/A,,Mostly Cloudy,200,2012-12-07 20:01:00
2:53 PM,66.0,59.0,78,29.89,10.0,SSW,9.2,-,N/A,,Overcast,210,2012-12-07 20:53:00
3:23 PM,66.2,57.2,73,29.89,10.0,South,8.1,-,N/A,,Partly Cloudy,190,2012-12-07 21:23:00
3:53 PM,64.0,57.9,80,29.88,10.0,South,8.1,-,N/A,,Clear,190,2012-12-07 21:53:00
4:53 PM,62.1,57.0,84,29.89,10.0,South,5.8,-,N/A,,Clear,190,2012-12-07 22:53:00
5:53 PM,60.1,57.0,90,29.91,10.0,South,6.9,-,N/A,,Partly Cloudy,190,2012-12-07 23:53:00
6:30 PM,60.8,57.2,88,29.92,10.0,South,6.9,-,N/A,,Mostly Cloudy,190,2012-12-08 00:30:00
6:50 PM,60.8,57.2,88,29.92,10.0,SSW,6.9,-,N/A,,Scattered Clouds,200,2012-12-08 00:50:00
6:53 PM,60.1,57.0,90,29.92,10.0,SSW,8.1,-,N/A,,Partly Cloudy,200,2012-12-08 00:53:00
7:53 PM,60.1,57.0,90,29.92,9.0,South,8.1,-,N/A,,Clear,190,2012-12-08 01:53:00
8:53 PM,59.0,57.0,93,29.93,7.0,SSW,5.8,-,N/A,,Partly Cloudy,200,2012-12-08 02:53:00
9:06 PM,59.0,57.2,94,29.93,7.0,SSW,5.8,-,N/A,,Mostly Cloudy,200,2012-12-08 03:06:00
9:53 PM,59.0,57.0,93,29.93,6.0,SSW,6.9,-,N/A,,Mostly Cloudy,210,2012-12-08 03:53:00
10:04 PM,59.0,57.2,94,29.94,6.0,SSW,6.9,-,N/A,,Mostly Cloudy,210,2012-12-08 04:04:00
10:53 PM,59.0,57.0,93,29.94,5.0,SSW,4.6,-,N/A,,Overcast,210,2012-12-08 04:53:00
11:01 PM,59.0,57.2,94,29.94,5.0,SSW,5.8,-,N/A,,Overcast,200,2012-12-08 05:01:00
11:53 PM,59.0,57.9,96,29.93,5.0,SSW,6.9,-,N/A,,Overcast,210,2012-12-08 05:53:00